Location: Alafon
(8.4500°N, 4.2333°E)
Time: 03:53:07
(UTC+00:00)

Vanguard 2 - Pass Details

Date: 07 August 2021
Orbit: 552 x 2937 km, 32.9° (Epoch: 21 September)

Event Time Altitude Azimuth Distance (km) Brightness Sun altitude
Rises 10:20:51 0° 290° (WNW) 3,955 11.0 67.1°
Reaches altitude 10° 10:23:14 10° 284° (WNW) 3,246 10.7 67.7°
Maximum altitude 10:31:25 50° 211° (SSW) 2,151 10.4 69.5°
Drops below altitude 10° 10:44:47 10° 140° (SE) 5,158 11.9 72.5°
Sets 10:49:42 0° 136° (SE) 6,444 12.3 73.6°
